• In Hungary
  • List of Countries
  • For 7 days
  • Water Temperature
  • Satellite Maps
  • Weather Map
  • News
  • Weather Widgets
  • user-avatar
    Login

    Hourly Weather Nashua

    Today, 19 February, Monday

    Time Temperature Precipitation Wind Pressure Humidity
    00:00 -2°C° 0 mm 1 mps 771 mmHg 85%
    01:00 -3°C° 0 mm 0 mps 771 mmHg 85%
    02:00 -2°C° 0 mm 1 mps 771 mmHg 85%
    03:00 -2°C° 0 mm 1 mps 771 mmHg 85%
    04:00 -2°C° 0 mm 1 mps 771 mmHg 85%
    05:00 -2°C° 0 mm 1 mps 772 mmHg 85%
    06:00 -4°C° 0 mm 2 mps 772 mmHg 85%
    07:00 -4°C° 0 mm 2 mps 772 mmHg 85%
    08:00 -1°C° 0 mm 3 mps 772 mmHg 79%
    09:00 0°C° 0 mm 4 mps 771 mmHg 73%
    10:00 +3°C° 0 mm 4 mps 771 mmHg 67%
    11:00 +5°C° 0 mm 5 mps 770 mmHg 66%
    12:00 +6°C° 0 mm 5 mps 770 mmHg 65%
    13:00 +7°C° 0 mm 5 mps 769 mmHg 64%
    14:00 +7°C° 0 mm 5 mps 768 mmHg 69%
    15:00 +7°C° 0 mm 4 mps 767 mmHg 73%
    16:00 +7°C° 0 mm 4 mps 767 mmHg 78%
    17:00 +6°C° 0.3 mm 4 mps 767 mmHg 83%
    18:00 +6°C° 0.3 mm 4 mps 767 mmHg 87%
    19:00 +5°C° 0.3 mm 4 mps 767 mmHg 92%
    20:00 +6°C° 0.9 mm 4 mps 766 mmHg 92%
    21:00 +6°C° 0.9 mm 4 mps 766 mmHg 93%
    22:00 +6°C° 0.9 mm 4 mps 765 mmHg 93%
    23:00 +7°C° 0.2 mm 4 mps 765 mmHg 93%

    Tomorrow, 20 February, Tuesday

    Time Temperature Precipitation Wind Pressure Humidity
    00:00 +7°C° 0.2 mm 4 mps 765 mmHg 93%
    01:00 +7°C° 0.2 mm 4 mps 764 mmHg 93%
    02:00 +8°C° 0 mm 4 mps 764 mmHg 94%
    03:00 +8°C° 0 mm 4 mps 764 mmHg 94%
    04:00 +8°C° 0 mm 4 mps 764 mmHg 94%
    05:00 +8°C° 0 mm 4 mps 764 mmHg 94%
    06:00 +8°C° 0 mm 4 mps 764 mmHg 94%
    07:00 +8°C° 0 mm 4 mps 764 mmHg 94%
    08:00 +10°C° 0 mm 4 mps 764 mmHg 92%
    09:00 +12°C° 0 mm 4 mps 764 mmHg 90%
    10:00 +13°C° 0 mm 4 mps 764 mmHg 88%
    11:00 +14°C° 0 mm 4 mps 763 mmHg 86%
    12:00 +15°C° 0 mm 5 mps 763 mmHg 83%
    13:00 +16°C° 0 mm 5 mps 763 mmHg 81%
    14:00 +16°C° 0 mm 5 mps 763 mmHg 81%
    15:00 +17°C° 0 mm 4 mps 763 mmHg 82%
    16:00 +17°C° 0 mm 4 mps 763 mmHg 82%
    17:00 +15°C° 0 mm 4 mps 763 mmHg 85%
    18:00 +15°C° 0 mm 4 mps 764 mmHg 88%
    19:00 +14°C° 0 mm 4 mps 764 mmHg 92%
    20:00 +14°C° 0 mm 4 mps 764 mmHg 91%
    21:00 +14°C° 0 mm 4 mps 764 mmHg 91%
    22:00 +15°C° 0 mm 4 mps 764 mmHg 91%
    23:00 +15°C° 0 mm 5 mps 764 mmHg 91%

    Day after tomorrow, 21 February, Wednesday

    Time Temperature Precipitation Wind Pressure Humidity
    00:00 +15°C° 0 mm 5 mps 764 mmHg 92%
    01:00 +15°C° 0 mm 5 mps 763 mmHg 93%
    02:00 +15°C° 0 mm 5 mps 763 mmHg 93%
    03:00 +15°C° 0 mm 5 mps 763 mmHg 93%
    04:00 +14°C° 0 mm 4 mps 762 mmHg 93%
    05:00 +14°C° 0 mm 4 mps 762 mmHg 93%
    06:00 +14°C° 0 mm 4 mps 762 mmHg 93%
    07:00 +14°C° 0 mm 4 mps 762 mmHg 92%
    08:00 +16°C° 0 mm 5 mps 762 mmHg 87%
    09:00 +17°C° 0 mm 5 mps 762 mmHg 81%
    10:00 +19°C° 0 mm 5 mps 762 mmHg 76%
    11:00 +20°C° 0 mm 5 mps 762 mmHg 72%
    12:00 +22°C° 0 mm 5 mps 761 mmHg 69%
    13:00 +23°C° 0 mm 5 mps 761 mmHg 65%
    14:00 +22°C° 0 mm 5 mps 760 mmHg 67%
    15:00 +22°C° 0 mm 5 mps 760 mmHg 69%
    16:00 +22°C° 0 mm 5 mps 760 mmHg 70%
    17:00 +21°C° 0 mm 5 mps 760 mmHg 75%
    18:00 +20°C° 0 mm 4 mps 760 mmHg 79%
    19:00 +19°C° 0 mm 4 mps 760 mmHg 84%
    20:00 +19°C° 0.3 mm 5 mps 761 mmHg 84%
    21:00 +17°C° 0.3 mm 5 mps 762 mmHg 85%
    22:00 +17°C° 0.3 mm 5 mps 762 mmHg 85%
    23:00 +15°C° 0 mm 5 mps 763 mmHg 78%

    22 February, Thursday

    Time Temperature Precipitation Wind Pressure Humidity
    00:00 +12°C° 0 mm 5 mps 764 mmHg 71%
    01:00 +10°C° 0 mm 4 mps 765 mmHg 64%
    02:00 +8°C° 0 mm 4 mps 766 mmHg 62%
    03:00 +7°C° 0 mm 4 mps 766 mmHg 60%
    04:00 +5°C° 0 mm 4 mps 767 mmHg 57%
    05:00 +5°C° 0 mm 4 mps 768 mmHg 57%
    06:00 +4°C° 0 mm 4 mps 769 mmHg 57%
    07:00 +3°C° 0 mm 3 mps 770 mmHg 57%
    08:00 +3°C° 0 mm 3 mps 771 mmHg 55%
    09:00 +4°C° 0 mm 3 mps 771 mmHg 52%
    10:00 +4°C° 0 mm 3 mps 772 mmHg 49%
    11:00 +4°C° 0 mm 3 mps 772 mmHg 47%
    12:00 +5°C° 0 mm 3 mps 772 mmHg 46%
    13:00 +5°C° 0 mm 3 mps 772 mmHg 44%
    14:00 +5°C° 0 mm 3 mps 772 mmHg 44%
    15:00 +5°C° 0 mm 3 mps 772 mmHg 43%
    16:00 +5°C° 0 mm 3 mps 772 mmHg 43%
    17:00 +5°C° 0 mm 2 mps 773 mmHg 46%
    18:00 +3°C° 0 mm 2 mps 773 mmHg 50%
    19:00 +2°C° 0 mm 2 mps 774 mmHg 53%
    20:00 +1°C° 0 mm 2 mps 774 mmHg 53%
    21:00 +1°C° 0 mm 2 mps 774 mmHg 52%
    22:00 -1°C° 0 mm 2 mps 775 mmHg 52%
    23:00 -1°C° 0 mm 2 mps 775 mmHg 50%

    23 February, Friday

    Time Temperature Precipitation Wind Pressure Humidity
    00:00 -1°C° 0 mm 2 mps 775 mmHg 49%
    01:00 -2°C° 0 mm 2 mps 775 mmHg 47%
    02:00 -2°C° 0 mm 2 mps 775 mmHg 47%
    03:00 -2°C° 0 mm 2 mps 775 mmHg 47%
    04:00 0°C° 0 mm 1 mps 775 mmHg 47%
    05:00 0°C° 0 mm 1 mps 776 mmHg 48%
    06:00 0°C° 0 mm 1 mps 776 mmHg 50%
    07:00 0°C° 0 mm 1 mps 776 mmHg 51%
    08:00 -1°C° 0 mm 2 mps 776 mmHg 50%
    09:00 +2°C° 0 mm 2 mps 776 mmHg 50%
    10:00 +3°C° 0 mm 2 mps 776 mmHg 50%
    11:00 +4°C° 0 mm 2 mps 775 mmHg 49%
    12:00 +4°C° 0 mm 3 mps 774 mmHg 48%
    13:00 +5°C° 0 mm 3 mps 773 mmHg 48%
    14:00 +4°C° 0 mm 3 mps 772 mmHg 50%
    15:00 +4°C° 0 mm 3 mps 772 mmHg 53%
    16:00 +4°C° 0 mm 3 mps 771 mmHg 56%
    17:00 +3°C° 0 mm 3 mps 771 mmHg 61%
    18:00 +2°C° 0 mm 3 mps 770 mmHg 65%
    19:00 +1°C° 0 mm 3 mps 769 mmHg 69%
    20:00 +1°C° 0.2 mm 3 mps 769 mmHg 71%
    21:00 +1°C° 0.2 mm 3 mps 768 mmHg 74%
    22:00 0°C° 0.2 mm 3 mps 767 mmHg 76%
    23:00 0°C° 1.2 mm 3 mps 766 mmHg 81%

    24 February, Saturday

    Time Temperature Precipitation Wind Pressure Humidity
    00:00 0°C° 1.2 mm 3 mps 765 mmHg 87%
    01:00 +1°C° 1.2 mm 2 mps 764 mmHg 93%
    02:00 +1°C° 0.5 mm 2 mps 763 mmHg 94%
    03:00 +1°C° 0.5 mm 2 mps 761 mmHg 95%
    04:00 +2°C° 0.5 mm 1 mps 760 mmHg 95%
    05:00 +3°C° 0.1 mm 1 mps 760 mmHg 96%
    06:00 +3°C° 0.1 mm 1 mps 759 mmHg 96%
    07:00 +2°C° 0.1 mm 0 mps 759 mmHg 97%
    08:00 +3°C° 0 mm 0 mps 758 mmHg 94%
    09:00 +4°C° 0 mm 0 mps 758 mmHg 91%
    10:00 +6°C° 0 mm 0 mps 758 mmHg 88%
    11:00 +8°C° 0 mm 1 mps 757 mmHg 85%
    12:00 +10°C° 0 mm 1 mps 756 mmHg 82%
    13:00 +11°C° 0 mm 1 mps 755 mmHg 79%
    14:00 +11°C° 0 mm 1 mps 755 mmHg 83%
    15:00 +10°C° 0 mm 1 mps 755 mmHg 87%
    16:00 +10°C° 0 mm 1 mps 755 mmHg 91%
    17:00 +9°C° 0.1 mm 1 mps 754 mmHg 93%
    18:00 +9°C° 0.1 mm 1 mps 754 mmHg 95%
    19:00 +8°C° 0.1 mm 1 mps 754 mmHg 97%
    20:00 +8°C° 0.1 mm 1 mps 754 mmHg 97%
    21:00 +8°C° 0.1 mm 1 mps 754 mmHg 97%
    22:00 +7°C° 0.1 mm 0 mps 754 mmHg 98%
    23:00 +8°C° 0 mm 1 mps 754 mmHg 98%
    Show more